Theta_e
353 353 352 350 348 347 347 348 349 349 349 350 352 351 351 350 350 348 345 343 342 342 343 344 343 343 342 340 340 341 342 343 344 344 347 350 352 354 354 353 353 352 353 353 353 352 349 347 347 348 347 344 345 345 345 345 345 345 347 345 349 351 349
353 353 353 351 349 348 348 348 349 349 349 351 352 351 351 351 348 344 342 342 343 343 343 343 344 343 341 339 339 340 341 342 343 343 346 349 348 350 353 354 354 351 350 352 353 352 347 344 344 345 345 345 346 345 344 346 345 346 349 347 349 350 346
353 353 353 351 350 349 348 349 349 349 350 350 351 351 351 349 345 342 341 342 342 343 343 343 343 342 340 337 337 339 340 342 343 342 345 349 349 350 352 352 352 353 351 350 350 350 349 347 344 344 345 346 350 350 347 348 347 346 346 345 348 350 347
354 354 353 352 351 350 349 350 350 350 350 349 350 351 349 344 342 342 342 342 342 343 343 343 343 343 341 338 337 338 339 341 343 345 348 351 350 351 353 352 352 353 354 351 350 351 352 351 346 343 344 344 348 351 347 348 350 347 345 345 346 348 348
354 353 353 353 352 351 351 350 351 351 350 349 350 350 349 345 343 343 342 342 344 344 344 346 348 348 345 342 342 343 342 341 342 346 349 351 352 352 353 353 353 353 354 354 353 351 350 350 349 347 345 343 345 348 346 345 348 346 344 344 346 349 351
354 354 354 354 353 351 350 349 350 351 350 350 350 350 350 348 344 343 342 342 344 347 348 349 350 350 348 346 348 348 347 344 340 341 345 349 351 352 353 353 354 354 353 354 354 353 351 350 351 350 349 349 350 352 352 350 350 351 347 344 346 350 354
354 354 353 354 353 351 350 349 348 350 349 348 349 348 347 346 343 342 342 341 342 345 349 350 351 351 350 350 350 350 349 347 344 341 343 347 350 351 352 353 353 353 353 354 354 355 354 352 351 350 350 352 354 354 355 353 351 353 352 347 344 345 348
355 354 353 354 353 351 351 350 348 350 351 348 346 346 344 343 342 342 342 342 341 342 345 349 352 351 349 349 349 350 350 350 349 347 346 348 351 351 352 353 353 353 353 354 354 354 355 354 353 351 350 353 354 353 354 352 348 352 355 353 348 347 350
354 355 355 355 353 353 352 351 348 349 349 346 344 343 342 341 341 341 341 341 341 341 341 346 351 351 346 344 346 348 350 350 351 351 350 350 351 351 352 352 353 354 353 353 354 354 354 353 354 353 350 351 351 348 349 349 347 351 356 353 348 347 351
355 356 356 355 354 354 353 350 349 348 347 345 344 343 342 342 341 341 341 341 341 342 341 343 348 348 344 343 344 345 348 350 350 350 351 351 350 351 351 352 353 354 354 353 353 353 354 352 354 353 349 348 349 347 346 347 347 350 353 352 350 347 347
356 355 356 354 354 356 352 349 349 348 347 346 346 345 344 344 344 342 342 342 341 342 343 342 344 345 342 343 344 344 346 348 350 350 350 351 350 350 350 351 352 353 354 354 353 353 354 352 352 352 348 347 351 349 347 346 347 348 350 353 354 351 349
356 356 356 355 355 356 354 352 350 348 347 348 347 346 346 345 345 345 343 342 343 344 345 343 343 344 343 343 343 344 345 346 347 348 349 349 349 350 351 351 351 352 353 354 353 353 353 353 352 352 348 345 348 351 349 347 347 347 347 351 354 353 352
354 355 355 355 356 356 355 354 352 350 348 348 347 345 346 345 345 345 345 343 343 346 347 345 343 343 343 343 343 344 344 345 346 347 349 350 350 350 351 351 351 352 352 353 353 353 352 352 352 352 351 347 345 349 349 346 346 346 344 347 352 354 353
353 354 354 355 355 355 355 355 354 353 352 350 349 347 346 346 347 346 346 345 344 346 348 348 346 344 344 344 344 344 344 345 347 347 349 351 350 349 350 351 351 352 352 353 354 353 352 351 350 351 352 350 348 349 350 347 345 345 343 344 347 351 352
353 352 352 352 353 353 354 354 354 354 353 353 352 350 348 347 347 347 346 345 345 346 346 346 346 346 346 347 347 345 344 345 346 347 347 349 349 348 348 349 351 351 352 353 353 353 352 351 350 350 350 351 351 350 350 350 349 349 348 346 347 350 352
351 351 351 351 351 351 352 352 353 352 353 353 353 353 352 350 349 349 347 346 347 348 348 347 346 346 346 346 346 346 346 346 347 346 346 347 348 349 348 348 348 349 350 350 350 351 352 352 352 351 350 350 351 350 349 349 350 351 347 344 345 348 351
349 349 350 350 350 350 350 351 352 351 351 352 352 352 352 351 351 350 349 349 349 351 351 349 349 348 346 345 344 344 345 347 348 348 348 347 347 348 349 348 347 346 345 345 345 345 347 347 348 350 350 350 349 349 349 348 348 349 344 338 340 344 346
349 348 348 348 349 349 349 349 350 350 350 351 351 352 352 351 351 350 350 350 349 350 350 349 349 349 348 348 346 346 345 345 346 346 347 347 346 347 350 350 349 347 343 340 339 339 339 339 341 343 345 348 349 348 348 346 347 348 345 339 340 343 344
347 346 346 346 346 346 346 346 347 348 349 350 350 350 351 350 350 350 350 349 349 349 349 349 350 349 349 349 349 348 347 345 345 345 345 345 345 345 348 349 349 349 347 344 339 336 336 335 336 337 338 342 347 348 347 347 347 349 346 339 338 342 343
345 345 345 344 344 344 344 344 344 345 346 347 346 347 348 347 347 347 348 348 348 348 348 349 350 349 349 350 350 350 349 347 347 346 344 345 346 346 347 348 349 349 350 349 345 342 340 337 335 335 334 338 342 344 344 347 348 348 343 336 335 337 340
343 343 342 341 341 341 341 342 341 341 341 341 340 341 342 343 344 344 345 345 346 346 347 348 349 349 349 349 349 350 349 348 348 347 346 345 347 348 348 348 349 349 349 350 349 347 346 344 341 341 339 340 343 345 347 350 349 345 338 334 335 336 339
342 341 339 338 338 339 339 339 339 338 338 337 337 338 338 339 340 340 340 342 343 344 345 346 347 348 348 348 348 349 348 348 348 348 348 348 348 349 349 348 349 349 349 350 350 349 348 347 347 349 348 346 347 350 353 353 350 346 342 339 339 341 344
339 336 335 333 332 332 332 330 329 330 330 330 330 331 333 335 337 338 338 339 340 342 342 343 344 344 344 345 346 346 346 347 347 347 348 348 349 349 349 349 349 350 350 350 351 351 351 349 349 350 351 350 350 351 353 353 349 348 347 346 344 346 348
335 333 330 327 324 322 320 318 318 318 318 319 318 318 322 327 332 335 336 336 337 338 339 340 340 341 341 342 342 343 342 342 344 345 345 345 346 347 348 349 349 350 350 351 351 352 351 350 351 351 351 352 352 352 353 352 350 348 349 348 347 347 347
331 329 327 324 321 319 319 318 317 317 316 316 317 318 319 320 323 326 328 330 330 330 331 332 333 334 334 334 334 336 338 339 339 339 339 339 341 343 346 347 348 348 348 349 349 351 351 351 351 351 352 352 350 350 352 352 350 350 350 349 348 348 348
328 326 326 324 322 321 321 320 320 320 320 319 320 321 320 317 317 317 320 323 324 324 325 326 327 328 328 328 326 326 327 329 328 326 327 330 332 334 338 342 343 343 344 345 347 348 349 349 350 351 351 350 348 349 350 351 351 351 351 350 350 350 349
330 329 329 327 324 324 323 322 320 320 320 319 319 319 318 316 315 315 316 317 318 319 322 323 324 325 325 325 324 322 322 322 319 316 317 319 321 325 329 333 335 337 339 341 342 344 346 347 348 349 349 347 348 348 349 349 350 351 351 351 350 350 350
330 331 330 328 327 326 325 322 321 320 320 319 319 318 317 314 313 314 315 314 314 314 316 317 318 318 318 318 319 319 320 320 318 316 315 315 318 322 325 327 329 331 334 335 336 337 340 342 343 345 345 345 345 346 346 347 347 348 349 349 349 350 351
330 330 329 328 327 326 324 323 322 322 321 321 321 320 317 314 312 312 313 312 312 312 312 312 312 312 312 311 311 311 312 313 314 314 313 312 317 322 325 327 328 329 332 335 335 335 337 338 339 341 343 342 341 342 344 344 345 345 346 346 348 349 349
331 329 328 326 325 324 324 323 322 321 320 319 318 318 316 313 311 311 310 309 308 309 308 308 308 307 307 307 307 307 307 307 308 309 310 311 317 324 329 331 331 332 334 337 336 337 338 339 339 339 339 339 338 338 339 339 338 337 337 339 343 345 345
331 330 329 326 323 322 322 321 321 319 316 314 314 314 312 311 309 308 307 306 306 306 305 305 305 305 305 306 306 306 307 307 306 306 307 308 313 321 329 332 332 333 336 337 336 336 337 336 334 332 332 332 333 333 334 334 332 331 330 331 335 335 335
327 327 327 324 322 321 320 319 320 319 315 311 311 310 309 307 307 306 305 305 305 305 305 304 304 305 305 305 305 306 309 310 309 307 306 306 308 312 318 325 330 332 333 332 332 332 333 331 329 328 328 329 329 330 333 333 332 331 331 331 332 333 333
324 324 324 322 321 321 319 317 318 318 315 311 310 309 308 306 305 305 305 305 305 305 305 304 305 305 304 305 304 305 307 308 309 311 311 310 312 314 312 314 321 326 329 330 330 330 331 330 329 328 329 329 329 329 331 332 332 333 333 333 335 336 336
323 323 323 321 320 319 318 315 313 313 312 310 308 307 306 305 305 304 305 305 305 305 305 304 305 304 304 306 307 306 305 306 309 314 315 311 311 314 313 310 310 312 316 322 326 328 330 330 329 330 330 330 330 330 330 330 331 333 334 334 335 335 334
323 323 322 321 319 317 315 313 311 311 311 310 308 307 306 305 305 304 305 305 305 305 305 304 305 304 305 310 312 310 310 312 312 312 315 315 313 310 308 307 307 306 306 308 312 316 320 322 324 327 328 328 329 330 329 328 330 332 332 332 331 330 329
322 322 321 320 319 317 313 312 311 311 311 310 309 307 306 306 306 305 305 305 304 305 305 304 305 304 304 308 311 309 312 317 315 308 309 315 317 312 307 305 305 305 306 306 305 305 308 310 312 315 316 318 320 321 321 321 322 323 323 322 320 318 316
321 321 320 319 319 317 314 312 311 312 312 311 310 309 308 307 307 307 307 307 306 306 306 304 305 305 303 303 305 304 307 311 312 307 305 308 309 307 308 311 310 306 304 305 306 306 306 305 306 306 307 308 310 310 310 310 311 311 310 310 309 309 308
320 320 320 319 318 317 315 313 312 313 312 311 311 310 309 309 309 309 309 309 308 308 307 306 305 305 304 303 303 303 303 304 305 305 305 305 305 306 308 313 316 315 311 307 306 306 307 307 307 307 306 307 307 307 307 307 307 307 308 308 308 309 309
Wind_Speed
27 26 25 24 24 24 23 22 22 21 20 20 20 19 19 19 20 20 20 19 18 18 17 16 17 17 18 18 17 16 16 16 15 15 13 13 12 11 9 9 8 8 7 6 6 7 8 8 9 8 8 7 7 7 6 6 6 5 5 5 5 4 4
27 26 25 24 24 24 23 23 22 22 21 21 20 19 19 20 22 23 22 20 19 18 17 16 16 17 18 19 18 17 16 16 16 16 15 14 15 14 11 9 9 8 8 7 6 7 8 8 9 8 8 7 7 6 6 6 6 5 5 5 5 5 4
27 26 25 24 23 23 23 23 22 22 22 21 19 19 20 22 23 22 21 21 20 20 18 17 16 16 18 19 19 18 17 17 16 16 16 14 14 13 11 11 10 8 8 8 7 7 7 8 9 8 8 8 7 7 6 6 5 6 6 5 5 5 4
26 27 26 25 23 23 22 22 22 22 22 20 19 19 21 23 23 21 21 21 21 21 20 18 17 16 17 18 19 18 18 18 17 16 15 14 13 12 12 12 11 9 8 8 8 8 8 8 9 9 9 8 8 8 7 7 6 6 6 5 5 5 5
23 24 24 25 24 22 21 21 22 22 22 20 19 20 20 23 24 23 22 21 21 21 20 18 17 16 17 17 17 18 18 18 18 17 16 15 14 13 13 12 11 10 9 9 9 10 9 9 8 8 9 8 8 8 7 7 7 7 6 6 5 4 4
22 23 24 24 22 21 22 24 22 21 22 21 20 21 21 22 25 24 23 22 21 20 19 18 17 17 17 17 16 17 17 18 18 18 17 16 15 15 14 13 12 11 11 10 10 10 9 9 9 9 9 8 8 7 7 7 7 7 7 7 6 5 5
22 25 25 24 23 24 25 27 26 22 22 23 22 23 23 23 24 25 24 24 22 21 19 18 18 18 17 16 16 17 16 16 17 18 17 16 16 16 15 14 13 12 11 11 11 10 9 9 9 10 9 8 9 8 8 9 9 8 7 7 7 7 6
20 22 22 22 25 26 25 25 26 20 19 23 24 24 25 23 23 24 24 24 23 23 21 19 18 19 19 17 17 16 16 16 15 16 16 16 16 16 16 15 14 13 13 12 12 11 11 10 10 10 10 9 10 10 9 10 10 8 7 7 8 7 6
16 18 19 21 23 24 23 24 26 22 20 23 24 24 24 23 22 22 22 23 23 22 22 21 19 20 21 19 17 16 16 15 15 15 16 16 17 16 16 16 14 14 14 13 12 12 12 11 10 11 11 11 11 11 10 11 10 9 9 9 9 9 8
14 15 17 19 20 21 23 24 25 25 26 25 24 23 22 22 22 22 22 23 23 21 21 21 21 22 23 20 19 17 16 16 16 15 16 16 17 17 17 16 15 14 14 14 13 12 12 12 12 13 13 12 12 12 11 11 10 10 10 10 10 10 9
12 13 16 18 17 17 22 25 26 26 26 24 24 24 24 24 23 22 22 22 22 21 19 20 22 24 24 22 20 19 18 17 16 16 16 16 16 16 17 16 15 14 14 14 14 13 13 13 14 14 14 13 12 12 12 11 11 11 11 10 10 10 9
10 12 14 16 15 14 17 20 23 25 24 23 24 24 25 26 23 21 22 22 21 19 18 20 21 22 22 22 21 20 19 18 17 16 17 16 16 16 16 16 16 15 15 14 15 14 13 13 14 14 15 14 13 12 12 12 12 12 12 11 10 10 10
10 11 12 13 13 12 13 14 17 20 22 23 25 25 25 24 23 22 23 25 24 21 18 20 21 20 20 21 21 21 20 20 19 17 17 16 16 16 15 15 16 16 15 15 15 15 14 14 14 13 14 14 14 13 13 13 13 13 13 13 12 11 11
10 11 11 11 10 11 12 12 13 15 15 17 20 24 26 25 24 25 25 26 27 24 21 20 20 20 20 21 22 22 21 20 19 18 17 17 17 17 16 16 15 15 16 16 16 16 15 15 14 13 13 13 13 13 13 14 14 14 14 14 13 13 12
10 10 10 9 9 9 10 10 11 12 11 11 13 16 21 24 25 25 25 25 25 25 24 24 23 22 21 20 21 21 22 21 20 19 19 18 18 18 17 17 16 16 16 16 17 16 15 15 15 14 14 13 14 14 14 14 14 14 14 14 13 13 12
9 9 9 8 9 10 10 9 10 11 11 10 10 10 11 15 17 18 19 20 19 19 21 22 23 23 22 23 22 21 21 21 21 21 20 19 19 18 18 18 18 17 18 18 18 18 17 17 16 15 15 14 14 15 15 15 14 15 17 17 15 14 13
8 9 9 9 10 11 11 10 10 12 12 11 11 11 11 12 14 15 16 18 17 16 17 18 18 19 21 23 24 23 23 23 22 21 20 20 20 19 19 19 19 19 20 20 20 20 21 20 19 18 16 15 15 15 15 15 15 17 19 18 16 16 16
10 11 11 11 11 11 11 10 11 12 12 11 11 12 12 12 13 14 15 17 17 16 16 17 17 18 18 20 22 23 24 26 26 25 23 22 22 21 19 19 20 20 21 23 23 22 23 23 22 21 19 17 16 16 16 15 16 19 21 19 17 17 17
12 12 12 12 12 12 11 11 11 12 12 12 11 11 10 9 10 12 14 16 17 16 17 17 17 18 19 19 19 21 22 25 27 27 25 23 23 23 22 21 20 20 20 21 22 23 24 24 23 23 22 20 18 18 17 16 16 20 22 21 19 19 19
12 12 12 12 12 12 12 13 13 13 12 11 10 9 8 6 5 7 9 11 13 16 19 20 19 19 20 19 19 19 20 22 24 25 25 24 23 24 24 23 22 21 20 19 20 21 22 23 23 23 22 21 20 21 19 17 18 22 24 22 21 21 21
13 13 13 13 13 14 15 15 15 15 13 12 12 11 10 9 7 7 7 6 8 12 16 20 20 21 22 22 21 21 21 22 23 24 25 25 25 24 24 24 23 23 22 22 22 22 21 20 20 21 21 21 20 19 18 19 22 25 25 23 21 22 23
13 13 13 13 14 16 16 16 16 17 17 16 15 15 13 12 11 11 10 9 9 9 10 12 15 17 17 17 18 19 20 21 23 23 24 26 26 25 25 25 25 25 25 24 23 23 23 22 20 20 20 21 21 20 17 19 24 25 23 22 22 22 23
15 16 17 18 19 20 21 21 22 21 21 21 20 19 17 16 15 14 13 13 12 12 11 9 9 9 8 8 10 11 13 14 16 17 19 22 24 25 25 24 23 24 25 25 23 21 21 22 21 20 19 20 22 23 20 22 27 26 24 24 24 23 23
18 19 21 23 24 26 26 25 26 24 23 22 21 20 18 16 15 15 15 14 14 13 13 13 12 11 9 9 9 8 7 7 7 8 10 12 13 16 18 19 20 21 23 23 22 19 17 18 19 19 19 20 20 18 19 24 28 27 25 25 24 23 22
21 21 23 23 24 26 25 24 24 22 21 20 19 17 15 14 13 14 15 15 14 14 14 14 14 13 12 11 10 8 7 5 4 4 3 4 6 9 13 14 16 18 20 20 22 21 17 15 17 18 19 19 15 13 16 22 24 23 22 22 22 22 22
22 22 22 22 22 23 23 22 22 20 19 19 17 15 12 11 11 12 13 13 12 14 14 13 12 11 10 9 9 8 8 8 8 7 6 5 3 2 5 9 11 13 14 15 17 19 16 14 16 17 17 15 13 14 17 17 17 16 17 18 19 19 19
18 18 18 19 20 19 18 19 19 18 17 16 14 12 10 8 9 10 10 10 10 11 12 12 11 9 8 7 7 7 8 9 9 9 9 8 8 8 6 1 4 6 8 10 11 14 15 15 16 17 16 13 14 17 17 15 14 14 15 16 17 17 17
16 16 17 17 17 15 15 16 16 15 15 14 12 10 8 6 7 8 8 8 8 9 9 9 8 7 6 5 5 5 5 5 6 6 6 6 8 10 10 8 7 6 5 5 6 8 10 10 10 11 11 10 11 13 13 12 12 12 13 14 14 14 15
13 15 16 16 14 13 13 14 14 13 12 11 9 9 7 5 6 7 6 7 8 8 7 6 5 5 4 4 4 4 4 3 4 4 4 4 5 6 7 7 7 6 5 5 5 5 5 5 5 7 7 6 6 7 8 9 10 11 12 13 13 13 12
13 14 15 15 13 12 11 11 11 10 9 8 6 6 5 4 5 6 5 6 7 6 6 5 5 4 4 3 3 3 3 3 3 3 3 3 3 3 4 4 3 2 2 3 4 3 3 3 3 4 4 2 3 3 4 4 6 7 8 10 12 13 12
14 14 14 13 12 11 10 10 9 7 5 4 4 4 4 5 6 5 5 6 6 5 5 5 5 5 4 4 3 3 3 3 3 2 3 2 2 3 3 2 1 1 1 1 2 2 3 3 4 3 2 1 1 1 3 4 5 6 6 5 6 7 7
11 12 13 12 10 8 6 5 5 4 4 4 4 4 4 4 4 4 4 5 6 6 6 6 6 6 5 5 4 3 3 3 3 2 2 2 2 2 4 4 3 3 4 2 1 3 5 6 6 5 4 2 1 3 5 7 8 9 9 9 9 9 9
13 13 13 11 9 7 5 2 1 2 3 2 1 2 3 2 2 2 3 5 6 6 6 6 6 6 6 5 4 3 2 2 2 3 2 2 3 2 2 5 6 7 7 6 5 6 7 7 8 7 6 4 3 4 5 6 7 10 12 12 12 12 13
15 14 12 10 9 8 6 2 1 1 2 2 1 1 0 1 1 2 3 4 4 5 5 6 6 5 6 6 5 4 4 3 3 3 3 1 1 2 2 3 5 7 9 10 10 10 9 8 8 8 8 8 8 8 6 4 6 11 14 14 15 16 16
19 16 13 11 9 8 6 3 2 2 3 2 2 2 2 2 2 2 3 3 3 3 3 4 4 4 5 5 5 4 5 5 3 3 3 3 3 2 2 3 4 5 7 8 9 11 11 10 10 11 11 11 12 13 11 10 13 16 17 17 18 19 19
23 19 14 13 11 9 7 5 4 4 4 4 3 3 4 4 4 4 4 3 3 3 3 3 3 2 3 3 2 3 4 4 2 1 3 3 1 3 4 4 4 5 6 7 8 9 10 11 13 14 13 12 14 16 16 16 18 20 19 19 20 20 20
24 19 15 15 15 12 9 7 5 5 6 5 4 5 6 6 6 6 6 5 5 5 4 4 4 4 3 3 2 2 3 3 1 1 1 2 2 2 3 4 5 5 6 7 8 8 9 10 12 13 13 12 14 17 17 17 18 19 18 18 19 19 19
23 18 15 16 17 14 11 8 8 8 8 7 7 8 8 8 7 7 7 7 7 7 7 7 7 6 6 5 4 3 2 2 1 1 1 1 1 1 1 1 3 5 6 7 7 8 9 10 11 12 12 12 13 15 16 16 17 17 17 17 17 17 17
Wind_Direction
189 189 192 193 193 195 195 196 198 198 198 201 205 205 202 200 202 208 215 214 210 209 207 207 209 209 208 208 209 213 216 218 217 215 215 215 213 211 210 211 212 213 213 216 220 220 217 212 209 210 211 209 208 206 203 206 206 208 216 210 207 224 220
190 190 190 191 193 194 195 196 198 200 201 204 208 206 201 200 207 214 217 215 211 210 209 210 212 212 211 210 210 211 213 216 217 216 214 217 218 214 210 213 215 217 215 212 215 220 220 218 215 214 212 211 215 216 210 211 213 213 222 219 215 232 231
190 191 190 190 192 194 194 195 198 200 202 205 206 204 203 205 210 214 214 214 213 211 211 212 213 215 215 213 212 212 212 213 216 217 216 217 221 218 218 220 215 216 221 216 212 212 215 221 220 218 216 212 214 222 221 219 222 224 230 230 223 235 238
188 190 190 190 191 194 195 196 198 200 203 204 204 206 209 211 211 211 213 214 214 213 212 212 214 217 218 216 215 215 215 215 215 216 216 217 220 219 221 224 218 214 219 217 210 205 207 219 222 219 220 216 214 222 224 219 221 226 231 236 233 238 246
184 185 186 188 190 190 191 194 197 202 206 204 204 210 213 214 214 213 215 216 215 215 214 212 212 216 220 219 217 219 219 219 218 216 215 215 217 220 220 221 220 218 217 214 213 213 214 217 220 221 223 223 222 225 229 225 224 229 233 237 239 241 255
173 176 182 185 185 185 191 201 204 205 210 207 205 212 213 215 219 217 217 219 216 214 213 212 211 213 220 220 217 220 222 223 222 219 218 216 217 219 219 220 220 219 219 215 214 219 223 220 216 219 220 219 221 222 228 230 225 229 235 235 235 230 226
173 177 183 181 183 192 200 210 213 210 213 212 210 217 219 221 225 222 222 223 219 215 212 210 210 213 219 219 217 221 224 225 226 224 222 221 221 220 219 221 220 217 217 216 215 216 222 223 218 218 216 211 214 214 219 229 223 221 234 237 239 236 229
179 179 182 177 185 198 199 205 211 204 204 211 212 219 224 227 229 227 227 228 226 221 216 211 209 214 220 222 221 223 225 225 226 228 227 224 224 224 221 221 222 219 216 216 218 218 218 222 219 220 217 210 215 217 218 229 228 220 230 240 241 241 240
175 173 175 175 183 191 190 200 211 206 204 212 215 219 225 228 230 230 230 232 232 228 223 216 212 217 225 228 227 227 226 224 224 227 228 225 224 224 222 221 221 221 220 217 220 220 219 218 215 221 222 214 220 227 226 233 233 224 228 237 238 236 233
169 169 174 180 180 182 188 197 204 206 211 216 218 220 223 226 228 229 231 233 234 233 229 222 217 222 230 230 230 232 229 225 223 224 226 225 224 223 222 221 220 222 222 220 219 219 220 217 213 222 227 221 224 232 232 234 235 229 232 238 242 242 238
160 169 175 181 178 178 191 197 197 204 212 216 217 218 220 224 227 229 231 235 236 235 232 226 222 227 233 232 231 232 230 227 224 223 224 225 224 224 223 221 220 222 222 220 219 217 218 218 215 221 228 226 227 233 234 233 233 231 231 234 241 245 244
159 170 176 180 179 176 185 192 197 205 210 211 213 215 217 221 222 222 226 231 232 230 228 226 224 227 233 234 232 231 230 228 226 223 223 225 225 225 224 223 220 221 222 220 219 217 216 218 218 221 228 227 226 230 233 232 231 232 231 228 233 240 240
163 169 174 178 181 181 179 183 194 203 207 210 212 214 217 219 220 221 224 227 231 231 226 227 229 228 230 233 232 231 232 231 229 225 223 224 225 224 224 225 222 221 223 221 220 219 217 217 218 221 226 229 227 227 231 232 230 231 232 227 226 233 237
153 158 166 171 174 180 182 185 192 198 203 207 212 218 223 224 225 227 227 228 233 232 225 224 229 227 225 229 231 230 231 233 233 230 226 225 225 223 222 224 224 222 223 223 222 223 221 220 220 221 225 230 230 229 231 234 235 235 236 235 233 235 240
142 142 150 155 157 163 169 177 188 192 195 199 204 214 222 226 229 231 231 231 233 233 230 230 230 227 222 222 226 227 227 230 233 234 232 229 228 227 224 224 225 225 225 224 224 224 224 223 223 224 226 228 231 233 234 235 237 237 236 237 237 239 243
143 138 140 141 142 150 156 165 175 176 179 187 193 198 208 218 225 229 230 231 230 231 232 232 231 230 226 224 225 226 225 227 231 235 237 235 232 230 228 228 228 227 228 229 228 226 226 225 224 225 227 230 233 236 237 236 237 238 239 238 235 235 239
144 141 137 134 135 142 147 150 154 159 164 172 178 182 187 199 209 214 218 222 222 223 227 229 229 230 229 230 231 231 227 225 227 233 238 240 237 231 226 227 230 231 232 233 233 230 230 230 228 228 229 233 236 237 237 237 237 243 248 246 240 238 240
130 129 121 117 120 128 136 140 148 160 170 173 177 184 191 203 212 213 216 221 220 220 224 228 230 231 230 232 235 233 229 228 230 233 236 239 240 235 229 225 227 232 236 236 236 235 234 234 233 232 232 233 235 237 236 236 237 244 250 249 242 241 242
117 115 111 112 116 122 128 135 146 158 166 169 173 182 193 207 216 215 219 224 223 222 224 226 227 228 227 230 235 235 232 230 233 235 237 240 240 238 234 229 225 230 236 238 239 240 240 239 237 237 237 236 234 235 235 236 239 244 248 246 241 239 239
119 112 109 112 114 118 123 127 132 138 143 145 145 150 157 162 177 190 204 217 219 220 224 224 222 223 222 220 225 231 232 231 232 234 236 239 239 237 236 233 229 229 233 236 238 239 240 239 237 238 241 240 238 238 238 236 237 242 247 247 241 239 238
119 113 111 111 113 116 119 120 119 114 111 109 105 105 105 105 115 133 148 171 186 197 211 218 218 221 223 222 222 227 231 231 232 231 230 231 234 236 235 234 232 232 234 235 235 235 235 235 235 236 238 238 237 239 240 238 237 242 249 250 245 241 240
119 116 113 112 113 115 116 115 113 110 108 107 108 108 106 106 108 107 107 115 125 140 172 199 206 210 216 219 222 226 228 228 231 232 231 230 232 235 237 238 238 238 238 237 236 236 237 237 234 233 233 232 231 230 230 236 240 242 245 247 246 244 243
120 118 117 116 117 116 115 111 108 107 108 108 108 109 110 113 116 113 107 105 106 112 124 141 157 169 173 176 189 201 206 212 219 224 227 228 230 232 236 239 241 241 240 238 233 232 237 239 237 234 233 233 232 231 231 237 243 245 244 245 246 246 248
120 119 118 118 118 116 114 110 106 104 103 101 99 100 102 107 113 115 112 110 111 116 121 123 123 123 124 127 135 145 154 165 180 195 208 214 217 220 222 226 229 231 233 231 224 221 226 232 232 231 232 231 229 229 235 240 245 246 245 246 247 248 249
124 124 122 120 120 118 116 111 108 104 101 99 97 97 99 102 107 111 108 105 109 116 117 115 114 117 118 115 113 118 124 123 129 151 177 188 199 209 211 212 216 219 221 219 216 213 212 215 219 222 228 232 229 227 237 244 246 244 242 244 246 247 246
126 126 123 123 122 119 116 113 110 106 103 102 100 99 102 104 109 112 111 109 112 115 113 110 107 106 103 96 94 100 108 110 108 100 93 101 125 195 224 227 226 222 217 213 213 213 211 213 221 226 233 238 233 229 234 240 243 243 242 245 247 245 243
123 121 119 121 120 116 116 116 113 108 104 101 97 94 95 100 102 104 109 115 117 113 110 107 104 99 88 79 74 76 86 92 91 88 84 81 75 71 71 122 215 207 205 208 212 215 219 225 229 232 234 231 224 228 237 241 244 247 248 249 250 247 242
120 122 122 122 118 115 118 116 110 104 100 96 92 89 85 85 92 99 108 116 111 103 101 99 98 96 87 76 68 63 70 75 74 77 78 71 73 79 82 86 93 109 137 166 180 196 210 220 226 229 228 221 218 228 237 239 242 247 248 249 250 245 238
131 129 125 121 116 115 117 112 106 102 99 98 97 98 94 85 89 96 106 111 106 101 100 94 88 87 78 71 67 61 60 58 53 53 54 57 71 85 90 91 89 89 105 126 138 155 173 180 200 218 217 207 207 217 221 226 234 241 242 243 244 240 236
155 142 132 128 123 118 114 110 107 102 98 98 94 92 88 76 75 82 88 92 91 92 95 93 89 83 72 63 63 62 61 67 66 62 59 64 82 96 100 101 88 68 81 105 108 116 136 158 184 199 200 194 195 203 218 238 248 251 248 242 240 242 245
173 163 154 150 143 133 119 107 99 83 67 65 62 63 59 49 53 64 75 79 77 72 71 74 77 79 74 64 58 54 55 56 58 70 83 99 124 140 143 137 114 116 135 89 94 133 150 164 176 165 141 131 249 263 288 289 286 290 296 285 270 269 273
164 167 167 169 169 164 146 111 85 51 26 23 28 34 40 43 46 56 70 76 76 72 67 64 65 69 73 71 63 59 60 55 47 50 65 91 121 172 193 190 188 192 182 162 181 202 192 192 193 180 162 158 238 283 284 285 285 286 291 296 298 300 303
159 162 168 171 173 175 174 161 58 15 354 356 36 44 38 48 57 67 80 81 80 80 77 71 64 58 58 64 64 65 65 53 49 45 38 78 104 112 198 206 210 217 209 198 200 213 215 217 218 212 202 199 214 244 267 285 285 276 275 282 287 289 292
181 178 178 173 166 166 175 204 288 325 315 293 198 182 120 113 102 93 95 87 81 82 79 78 76 66 57 53 48 53 62 57 66 69 35 14 126 143 172 199 215 227 227 224 224 227 229 231 234 234 232 230 233 236 241 255 265 266 270 276 281 284 287
199 198 195 189 186 186 189 210 261 275 266 243 216 205 173 143 126 109 101 91 87 86 76 76 82 81 78 71 51 49 58 52 60 103 79 30 357 281 246 236 239 242 241 238 235 237 239 241 244 247 246 247 249 247 243 245 254 264 272 276 279 283 286
202 202 200 192 191 196 199 205 230 245 236 223 206 181 151 136 128 112 99 89 85 83 76 75 73 66 87 100 95 98 94 69 33 158 132 98 20 291 287 282 273 266 264 261 255 250 247 246 249 253 255 258 261 259 256 257 262 268 273 275 277 281 284
202 206 208 197 189 194 203 207 209 209 202 190 173 155 138 130 124 112 99 89 81 76 74 77 79 73 70 74 84 123 136 138 159 214 187 183 215 255 286 293 286 280 275 272 269 267 263 257 256 257 256 255 260 264 265 265 269 273 276 277 279 281 283
204 210 217 207 197 196 202 205 200 191 181 169 159 149 138 132 125 112 102 92 82 76 72 69 72 76 75 69 68 73 86 109 144 202 231 245 261 268 263 294 308 306 301 294 283 276 273 270 266 266 265 261 263 268 271 273 275 278 280 282 284 284 286